TimeAST,TemperatureF,Dew PointF,Humidity,Sea Level PressureIn,VisibilityMPH,Wind Direction,Wind SpeedMPH,Gust SpeedMPH,PrecipitationIn,Events,Conditions,WindDirDegrees,DateUTC
12:00 AM,71.6,64.4,78,30.06,-9999.0,NNE,3.5,-,N/A,,Clear,20,2013-03-03 21:00:00
1:00 AM,71.6,64.4,78,30.04,-9999.0,NNE,4.6,-,N/A,,Clear,20,2013-03-03 22:00:00
1:30 AM,71.6,62.6,73,30.04,-9999.0,NNE,4.6,-,N/A,,Clear,20,2013-03-03 22:30:00
2:00 AM,73.4,60.8,65,30.04,-9999.0,NE,4.6,-,N/A,,Clear,40,2013-03-03 23:00:00
2:30 AM,73.4,59.0,61,30.04,-9999.0,NNE,9.2,-,N/A,,Clear,20,2013-03-03 23:30:00
3:00 AM,72,59,55,30.04,7,NE,3.5,,,,,40,2013-03-04 00:00:00
3:00 AM,71.6,59.0,64,30.04,-9999.0,NE,3.5,-,N/A,,Clear,40,2013-03-04 00:00:00
3:30 AM,69.8,62.6,78,30.04,-9999.0,Variable,2.3,-,N/A,,Clear,0,2013-03-04 00:30:00
4:00 AM,69.8,62.6,78,30.04,-9999.0,Variable,2.3,-,N/A,,Clear,0,2013-03-04 01:00:00
4:30 AM,69.8,62.6,78,30.04,-9999.0,North,1.2,-,N/A,,Clear,350,2013-03-04 01:30:00
5:00 AM,69.8,64.4,83,30.04,-9999.0,Calm,Calm,-,N/A,,Clear,0,2013-03-04 02:00:00
5:30 AM,69.8,62.6,78,30.06,-9999.0,Calm,Calm,-,N/A,,Clear,0,2013-03-04 02:30:00
6:00 AM,69.8,62.6,78,30.06,-9999.0,Calm,Calm,-,N/A,,Clear,0,2013-03-04 03:00:00
6:30 AM,69.8,60.8,73,30.06,-9999.0,Variable,1.2,-,N/A,,Clear,0,2013-03-04 03:30:00
7:00 AM,71.6,62.6,73,30.09,-9999.0,Variable,2.3,-,N/A,,Clear,0,2013-03-04 04:00:00
7:30 AM,73.4,64.4,73,30.09,-9999.0,Variable,1.2,-,N/A,,Clear,0,2013-03-04 04:30:00
8:00 AM,77.0,60.8,57,30.09,-9999.0,Variable,2.3,-,N/A,,Clear,0,2013-03-04 05:00:00
9:00 AM,78,55,34,30.12,7,ESE,5.8,,,,,120,2013-03-04 06:00:00
9:00 AM,78.8,55.4,44,30.09,-9999.0,ESE,5.8,-,N/A,,Clear,120,2013-03-04 06:00:00
9:30 AM,80.6,55.4,42,30.12,-9999.0,ESE,8.1,-,N/A,,Clear,120,2013-03-04 06:30:00
10:00 AM,80.6,51.8,37,30.09,-9999.0,ESE,8.1,-,N/A,,Clear,110,2013-03-04 07:00:00
10:30 AM,82.4,51.8,35,30.09,-9999.0,ESE,9.2,-,N/A,,Clear,110,2013-03-04 07:30:00
11:00 AM,82.4,53.6,37,30.09,-9999.0,SE,9.2,-,N/A,,Clear,140,2013-03-04 08:00:00
11:30 AM,82.4,51.8,35,30.06,-9999.0,SE,9.2,-,N/A,,Clear,130,2013-03-04 08:30:00
12:00 PM,82.4,51.8,35,30.06,-9999.0,SE,9.2,-,N/A,,Clear,130,2013-03-04 09:00:00
12:30 PM,82.4,51.8,35,30.04,-9999.0,SE,9.2,-,N/A,,Clear,130,2013-03-04 09:30:00
1:00 PM,84.2,53.6,35,30.04,-9999.0,ESE,9.2,-,N/A,,Clear,120,2013-03-04 10:00:00
1:30 PM,82.4,53.6,37,30.01,-9999.0,SE,9.2,-,N/A,,Clear,140,2013-03-04 10:30:00
2:00 PM,84.2,55.4,37,30.01,-9999.0,East,9.2,-,N/A,,Clear,100,2013-03-04 11:00:00
2:30 PM,82.4,55.4,39,30.01,-9999.0,East,8.1,-,N/A,,Clear,100,2013-03-04 11:30:00
3:00 PM,83,53,26,30.00,10,East,8.1,,,,,100,2013-03-04 12:00:00
3:00 PM,82.4,53.6,37,29.98,-9999.0,East,8.1,-,N/A,,Clear,100,2013-03-04 12:00:00
3:30 PM,82.4,57.2,42,29.98,-9999.0,ESE,8.1,-,N/A,,Clear,110,2013-03-04 12:30:00
4:00 PM,82.4,53.6,37,29.98,-9999.0,SE,8.1,-,N/A,,Clear,140,2013-03-04 13:00:00
5:00 PM,80.6,53.6,39,29.98,-9999.0,SE,8.1,-,N/A,,Clear,130,2013-03-04 14:00:00
5:30 PM,78.8,55.4,44,29.98,-9999.0,SE,5.8,-,N/A,,Clear,130,2013-03-04 14:30:00
6:00 PM,77.0,57.2,50,29.98,-9999.0,SE,5.8,-,N/A,,Clear,130,2013-03-04 15:00:00
6:30 PM,75.2,64.4,69,29.98,-9999.0,ESE,3.5,-,N/A,,Clear,110,2013-03-04 15:30:00
7:00 PM,75.2,62.6,65,29.98,-9999.0,SE,3.5,-,N/A,,Clear,130,2013-03-04 16:00:00
7:30 PM,75.2,64.4,69,30.01,-9999.0,SSE,4.6,-,N/A,,Clear,150,2013-03-04 16:30:00
8:00 PM,75.2,62.6,65,30.01,-9999.0,SE,4.6,-,N/A,,Clear,130,2013-03-04 17:00:00
8:30 PM,73.4,62.6,69,30.01,-9999.0,East,3.5,-,N/A,,Clear,100,2013-03-04 17:30:00
9:00 PM,73,63,63,30.03,9,ESE,3.5,,,,,120,2013-03-04 18:00:00
9:00 PM,73.4,62.6,69,30.01,-9999.0,ESE,3.5,-,N/A,,Clear,120,2013-03-04 18:00:00
9:30 PM,73.4,62.6,69,30.01,-9999.0,ESE,6.9,-,N/A,,Clear,120,2013-03-04 18:30:00
10:00 PM,73.4,62.6,69,30.01,-9999.0,ESE,5.8,-,N/A,,Clear,120,2013-03-04 19:00:00
10:30 PM,73.4,60.8,65,29.98,-9999.0,ESE,5.8,-,N/A,,Clear,120,2013-03-04 19:30:00
11:00 PM,73.4,62.6,69,29.98,-9999.0,ESE,5.8,-,N/A,,Clear,120,2013-03-04 20:00:00
11:30 PM,73.4,62.6,69,29.98,-9999.0,SE,5.8,-,N/A,,Clear,130,2013-03-04 20:30:00